Location: City of Moscow
(46.7306°N, 116.9989°W)
Time: 03:07:30
(UTC+00:00)

Cosmos 1626 Rocket - Pass Details

Date: 22 March 2026
Orbit: 596 x 624 km, 82.5° (Epoch: 13 April)

Event Time Altitude Azimuth Distance (km) Brightness Sun altitude
Rises 12:54:43 0° 333° (NNW) 2,882 6.8 -9.7°
Reaches altitude 10° 12:57:46 10° 311° (NW) 1,965 5.8 -9.2°
Maximum altitude 13:00:12 15° 276° (W) 1,653 5.2 -8.8°
Drops below altitude 10° 13:02:38 10° 242° (WSW) 1,946 5.5 -8.3°
Enters shadow 13:03:19 - 235° (SW) 2,115 5.7 -8.2°
